Terminal Aerodrome Forecast
Issued by NWS Buffalo, NY

Home | Current Version | Previous Version | Text Only | Print | Product List | Glossary On
Versions: 1 2 3 4 5 6 7 8 9 10 11 12 13 14 15 16 17 18 19 20 21 22 23 24 25 26 27 28 29 30 31 32
000
FTUS41 KBUF 011500 AAB
TAFROC
TAF AMD
KROC 011508Z 0115/0212 04012KT 1 1/2SM -SN OVC015
     FM011700 05011KT P6SM OVC090
     FM012100 06012KT 2SM -SN OVC060
     FM020200 06015G21KT 1SM -SN BLSN OVC025
     FM020600 05018G25KT 1/2SM SN BLSN OVC025=

USA.gov is the U.S. government's official web portal to all federal, state and local government web resources and services.